Hourly Data Report for May 15, 2020

KUGAARUK CLIMATE
NUNAVUT
Current Station Operator: ECCC - MSC

68°32'15.060" N
89°47'47.020" W
15.80 m
2303094
71407
NBB

Download Data

Hourly Data (May 2020)
Hourly Data Report for May 15, 2020
TIME
LST
Temp Definition
°C
Dew Point Definition
°C
Rel Hum Definition
%
Precip. Amount Definition
mm

Wind Dir Definition
10's deg

Wind Spd Definition
km/h
Visibility Definition
km
Stn Press Definition
kPa
Hmdx Definition


Wind Chill Definition


Weather Definition


00:00 -6.6 -7.8 91 0.0 11 30   100.66   -15 LegendNANA
01:00 -6.4 -7.7 91 0.2 10 24   100.64   -14 LegendNANA
02:00 -6.3 -7.7 90 0.0 9 34   100.57   -15 LegendNANA
03:00 -6.1 -7.4 91 0.2 8 35   100.47   -15 LegendNANA
04:00 -5.6 -6.7 92 0.2 8 37   100.41   -15 LegendNANA
05:00 -4.9 -6.4 90 0.0 9 37   100.32   -14 LegendNANA
06:00 -4.5 -5.9 90 0.0 11 50   100.20   -14 LegendNANA
07:00 -3.3 -5.0 88 0.0 12 32   100.35   -11 LegendNANA
08:00 -2.0 -3.9 87 0.0 14 38   100.34   -10 LegendNANA
09:00 -1.2 -3.5 84 0.0 14 36   100.36   -9 LegendNANA
10:00 -0.7 -3.3 82 0.0 15 36   100.39   -8 LegendNANA
11:00 -0.7 -3.2 83 0.0 15 24   100.49   -7 LegendNANA
12:00 -3.3 -7.4 73 0.0 23 27   100.58   -10 LegendNANA
13:00 -4.1 -8.0 74 0.0 22 26   100.67   -11 LegendNANA
14:00 -5.5 -9.0 76 0.0 23 22   100.75   -13 LegendNANA
15:00 -5.8 -8.5 81 0.0 22 21   100.84   -13 LegendNANA
16:00 -5.9 -9.0 79 0.0 21 22   100.90   -13 LegendNANA
17:00 -6.2 -9.3 78 0.0 23 21   100.98   -13 LegendNANA
18:00 -6.2 -8.7 83 0.0 25 11   101.04   -11 LegendNANA
19:00 -6.4 -8.8 83 0.0 25 2   101.12   -7 LegendNANA
20:00 -7.9 -11.6 75 0.0 19 15   101.19   -14 LegendNANA
21:00 -8.5 -12.5 73 0.0 19 15   101.27   -15 LegendNANA
22:00 -9.7 -13.4 74 0.0 18 21   101.34   -18 LegendNANA
23:00 -9.4 -13.2 74 0.0 18 20   101.38   -17 LegendNANA

Notes on Data Quality.

Legend

  • E = Estimated
  • M = Missing
  • NA = Not Available*
  • [empty] = Indicates an unobserved value
Date modified: